Powrót do katalogu

O3BF03

AktywnyŁącznośćMEO
NORAD 56368·PAYLOAD·🇱🇺 Luxembourg

Wystrzelony Apr 28, 2023 z Cape Canaveral Space Force Station

Loading…

Następne Przeloty (najbliższe 24 godziny)

TLE

ŚwieżeSource: CelesTrak SupGP

Epoka: Sep 13, 2026, 13:00 UTC

1 56368C 23059B   26256.54166667  .00000000  00000+0  00000+0 0  2563
2 56368   0.0606 342.3578 0006421 183.9843 162.0600  5.00115610    18

Śledź O3BF03 w czasie rzeczywistym z AllMySat

Download on the App Store